Location: Columbia
(38.9520°N, 92.3340°W)
Time: 23:39:26
(UTC-05:00)

SJ-11-01 - Visible Passes

Search period start: 20 August 2017 00:00
Search period end: 30 August 2017 00:00
Orbit: 684 x 702 km, 98.1° (Epoch: 20 August)

Date Brightness Start Highest point End Pass type
(mag) Time Alt. Az. Time Alt. Az. Time Alt. Az.
20 Aug 4.2 21:19:13 15° SSE 21:23:09 90° SSE 21:27:51 10° NNW visible
21 Aug 5.6 20:22:09 10° ESE 20:25:47 23° ENE 20:29:26 10° NNE visible
21 Aug 5.7 21:59:41 14° SSW 22:03:09 33° W 22:07:23 10° NNW visible
22 Aug 4.3 21:01:29 14° SSE 21:05:27 58° ENE 21:10:03 10° N visible
22 Aug 6.9 22:41:16 10° WSW 22:43:22 13° W 22:45:27 10° WNW visible
23 Aug 5.0 21:41:58 17° S 21:45:20 52° W 21:49:54 10° NNW visible
24 Aug 4.9 20:43:46 11° SE 20:47:47 38° ENE 20:52:06 10° N visible
24 Aug 6.5 22:22:28 12° SW 22:25:27 20° W 22:28:51 10° NW visible
25 Aug 4.3 21:24:16 19° S 21:27:35 81° WSW 21:32:16 10° NNW visible
26 Aug 5.4 20:26:22 10° ESE 20:30:10 26° ENE 20:34:00 10° NNE visible
26 Aug 5.9 22:04:45 17° SSW 22:07:35 30° W 22:11:42 10° NW visible
27 Aug 4.2 21:06:33 19° SSE 21:09:51 66° ENE 21:14:30 10° N visible
27 Aug 7.0 22:46:22 10° WSW 22:47:50 11° W 22:49:19 10° WNW visible
28 Aug 5.9 20:09:34 10° ESE 20:12:36 17° ENE 20:15:38 10° NNE visible
28 Aug 5.1 21:47:03 22° SSW 21:49:46 46° W 21:54:17 10° NNW visible
29 Aug 4.7 20:48:51 16° SE 20:52:11 42° ENE 20:56:35 10° N visible
29 Aug 6.7 22:27:33 13° SW 22:29:55 18° W 22:33:05 10° NW visible
